GW7053 Weather Reports


Display with metric or nautical units.
time (UTC)temp
F
wind
direction
speed
MPH
gust
MPH
rain 1hr
in
rain 24hr
in
rain mn
in
humidity
%
barometer
mb
20260502221425 57 108 0.0 1.0 0.00 0.17 0.17 76 1014.0
20260502220922 57 23 0.0 0.0 0.00 0.17 0.17 77 1014.0
20260502220417 57 79 0.0 1.0 0.00 0.17 0.17 76 1013.7
20260502215914 57 101 1.0 2.0 0.00 0.17 0.17 76 1014.0
20260502215412 57 84 0.0 1.0 0.00 0.17 0.17 76 1013.9
20260502214908 57 40 0.0 0.0 0.00 0.17 0.17 75 1013.7
20260502214405 58 45 0.0 0.0 0.00 0.17 0.17 75 1013.8
20260502213902 58 41 0.0 0.0 0.00 0.17 0.17 74 1013.8
20260502213359 58 29 0.0 0.0 0.00 0.17 0.17 73 1013.9
20260502212858 58 32 0.0 0.0 0.00 0.17 0.17 75 1013.9
20260502212356 58 340 0.0 1.0 0.00 0.17 0.17 73 1013.8
20260502211853 58 351 0.0 1.0 0.00 0.17 0.17 72 1013.9
20260502211349 58 89 1.0 1.0 0.00 0.17 0.17 75 1013.8
20260502210846 58 200 1.0 2.0 0.00 0.17 0.17 76 1013.6
20260502210343 57 57 0.0 1.0 0.00 0.17 0.17 77 1013.6
20260502205841 57 34 0.0 1.0 0.00 0.17 0.17 75 1013.9
20260502205336 57 41 0.0 2.0 0.00 0.17 0.17 75 1014.0
20260502204834 57 39 0.0 1.0 0.00 0.17 0.17 75 1014.0
20260502204331 58 62 0.0 0.0 0.00 0.17 0.17 75 1013.8
20260502203828 58 41 0.0 1.0 0.00 0.17 0.17 74 1013.8
20260502203326 58 86 0.0 1.0 0.00 0.17 0.17 75 1013.8
20260502202826 58 57 0.0 1.0 0.00 0.17 0.17 77 1014.0
20260502202324 58 236 1.0 1.0 0.00 0.17 0.17 75 1014.0
20260502201822 57 103 0.0 3.0 0.00 0.17 0.17 76 1013.8
20260502201317 58 38 0.0 1.0 0.00 0.17 0.17 79 1013.7
20260502200814 59 204 3.0 6.0 0.00 0.17 0.17 73 1013.9
20260502200310 59 37 0.0 0.0 0.00 0.17 0.17 75 1013.7
20260502195808 58 23 0.0 0.0 0.00 0.17 0.17 75 1013.8
20260502195305 58 46 0.0 1.0 0.00 0.17 0.17 76 1014.0
20260502194801 58 41 0.0 1.0 0.00 0.17 0.17 75 1014.3
20260502194258 57 34 0.0 0.0 0.00 0.17 0.17 81 1014.1
20260502193754 57 43 0.0 1.0 0.00 0.17 0.17 78 1014.4
20260502193251 57 113 1.0 3.0 0.00 0.17 0.17 75 1014.4
20260502192751 58 40 0.0 1.0 0.00 0.17 0.17 79 1014.4
20260502192249 57 38 0.0 0.0 0.00 0.17 0.17 78 1014.7
20260502191746 57 338 0.0 1.0 0.00 0.17 0.17 78 1014.6
20260502191244 57 222 1.0 2.0 0.00 0.17 0.17 77 1014.5
20260502190741 57 47 0.0 3.0 0.00 0.17 0.17 80 1014.5
20260502190238 57 43 0.0 0.0 0.00 0.17 0.17 79 1014.5
20260502185738 57 41 0.0 1.0 0.00 0.17 0.17 79 1014.7
20260502185235 56 30 0.0 1.0 0.00 0.17 0.17 79 1014.6
20260502184732 56 26 0.0 1.0 0.00 0.17 0.17 81 1014.7
20260502184227 57 45 1.0 1.0 0.00 0.17 0.17 80 1014.7
20260502183724 56 48 0.0 0.0 0.00 0.17 0.17 82 1014.7
20260502183220 57 52 0.0 1.0 0.00 0.17 0.17 79 1014.8
20260502182715 57 55 0.0 1.0 0.00 0.17 0.17 83 1014.7
20260502182211 56 17 0.0 1.0 0.00 0.17 0.17 85 1014.9
20260502181708 56 23 0.0 2.0 0.00 0.17 0.17 83 1015.1
20260502181208 55 32 0.0 0.0 0.00 0.17 0.17 87 1015.2
20260502180704 55 31 0.0 0.0 0.00 0.17 0.17 88 1015.2
20260502180202 55 40 0.0 1.0 0.00 0.17 0.17 88 1015.3
20260502170126 54 27 0.0 1.0 0.00 0.17 0.17 90 1015.3
20260502164112 54 37 0.0 0.0 0.00 0.17 0.17 91 1015.6
20260502163609 54 33 0.0 1.0 0.00 0.17 0.17 92 1015.9
20260502163105 54 33 0.0 1.0 0.07 0.17 0.17 92 1016.1
20260502162602 53 48 0.0 1.0 0.07 0.17 0.17 92 1015.9
20260502162059 53 231 2.0 2.0 0.00 0.16 0.16 91 1016.1
20260502161556 53 39 0.0 0.0 0.00 0.16 0.16 92 1016.2
20260502161053 53 73 1.0 2.0 0.05 0.16 0.16 90 1016.3
20260502160551 53 36 0.0 0.0 0.05 0.16 0.16 92 1016.2
20260502152004 54 25 0.0 0.0 0.07 0.15 0.15 92 1015.9
20260502151501 54 37 0.0 0.0 0.07 0.15 0.15 92 1016.1
20260502150958 54 29 0.0 0.0 0.00 0.14 0.14 92 1015.8
20260502150455 54 68 0.0 0.0 0.00 0.14 0.14 92 1015.9
20260502130341 52 37 0.0 0.0 0.05 0.05 0.05 91 1015.3
20260502123323 53 32 0.0 0.0 0.05 0.03 0.03 91 1014.9
20260502122820 52 29 0.0 0.0 0.00 0.02 0.02 91 1014.7
20260502122316 52 21 0.0 0.0 0.00 0.02 0.02 91 1014.7
20260502121815 52 33 0.0 0.0 0.00 0.02 0.02 90 1014.6
20260502121312 52 32 0.0 0.0 0.00 0.02 0.02 90 1014.6
20260502120809 53 36 0.0 0.0 0.00 0.02 0.02 90 1014.7
20260502120305 53 35 0.0 0.0 0.07 0.02 0.02 90 1014.8
20260502115803 53 36 0.0 0.0 0.07 0.02 0.02 90 1014.9
20260502115300 53 29 0.0 0.0 0.00 0.01 0.01 89 1014.8
20260502114755 53 29 0.0 0.0 0.00 0.01 0.01 88 1014.8
20260502114252 53 38 0.0 0.0 0.00 0.01 0.01 88 1014.9
20260502113750 53 38 0.0 0.0 0.00 0.01 0.01 88 1015.1
20260502113248 53 34 0.0 0.0 0.00 0.01 0.01 87 1014.9
20260502112745 53 32 0.0 0.0 0.05 0.01 0.01 86 1014.8
20260502112243 53 33 0.0 0.0 0.00 0.00 0.00 85 1014.9
20260502111740 53 32 0.0 0.0 0.00 0.00 0.00 85 1015.0
20260502111237 53 45 0.0 0.0 0.00 0.00 0.00 84 1015.1
20260502110735 53 39 0.0 0.0 0.00 0.00 0.00 84 1015.0
20260502110232 54 40 0.0 0.0 0.00 0.00 0.00 84 1014.9
20260502105730 53 23 0.0 0.0 0.00 0.00 0.00 84 1015.2
20260502105226 53 37 0.0 0.0 0.00 0.00 0.00 85 1014.9
20260502104724 53 43 0.0 0.0 0.00 0.00 0.00 86 1014.9
20260502104221 53 34 0.0 0.0 0.00 0.00 0.00 89 1015.0
20260502103719 53 33 0.0 0.0 0.00 0.00 0.00 88 1015.0
20260502103217 53 39 0.0 0.0 0.00 0.00 0.00 88 1015.2
20260502102713 53 39 0.0 0.0 0.00 0.00 0.00 87 1015.1
20260502102210 53 49 0.0 0.0 0.00 0.00 0.00 88 1015.1
20260502101708 53 49 0.0 0.0 0.00 0.00 0.00 88 1015.1
20260502101206 53 34 0.0 0.0 0.00 0.00 0.00 88 1015.1
20260502100704 53 34 0.0 0.0 0.00 0.00 0.00 88 1015.0
20260502100202 53 35 0.0 1.0 0.00 0.00 0.00 88 1015.0
20260502091136 53 41 0.0 1.0 0.00 0.00 0.00 92 1015.0
20260502090633 53 38 0.0 0.0 0.00 0.00 0.00 92 1014.8
20260502090130 52 35 0.0 0.0 0.00 0.00 0.00 92 1014.8
20260502071533 52 48 0.0 0.0 0.00 0.00 0.00 93 1014.0
20260502071032 52 48 0.0 0.0 0.00 0.00 0.00 93 1014.1
20260502070529 52 37 0.0 0.0 0.00 0.00 0.00 92 1014.0
20260502070027 53 37 0.0 0.0 0.00 0.00 0.00 93 1014.0
20260502065525 52 47 0.0 0.0 0.00 0.00 0.00 93 1014.2
20260502065023 52 48 0.0 0.0 0.00 0.00 0.00 92 1014.0
20260502064521 52 33 0.0 0.0 0.00 0.00 0.00 92 1014.0
20260502064018 52 54 0.0 0.0 0.00 0.00 0.00 92 1014.3
20260502063516 52 54 0.0 0.0 0.00 0.00 0.00 92 1014.4
20260502063014 52 54 0.0 0.0 0.00 0.00 0.00 92 1014.5
20260502062510 52 54 0.0 0.0 0.00 0.00 0.00 92 1014.4
20260502062009 52 54 0.0 0.0 0.00 0.00 0.00 92 1014.4
20260502061506 52 54 0.0 0.0 0.00 0.00 0.00 92 1014.3
20260502061003 52 54 0.0 0.0 0.00 0.00 0.00 92 1014.4
20260502060457 52 41 0.0 0.0 0.00 0.00 0.00 91 1014.5
20260502055954 52 41 0.0 0.0 0.00 0.00 0.00 91 1014.3
20260502055453 53 41 0.0 0.0 0.00 0.00 0.00 91 1014.3
20260502054952 53 41 0.0 0.0 0.00 0.00 0.00 91 1014.3
20260502054449 53 41 0.0 0.0 0.00 0.00 0.00 91 1014.7
20260502053946 53 41 0.0 0.0 0.00 0.00 0.00 91 1014.7
20260502053443 53 52 0.0 0.0 0.00 0.00 0.00 91 1014.6
20260502052941 53 53 0.0 0.0 0.00 0.00 0.00 91 1014.6
20260502052439 53 46 0.0 0.0 0.00 0.00 0.00 91 1014.7
20260502051937 53 46 0.0 0.0 0.00 0.00 0.00 91 1014.8
20260502051435 53 46 0.0 0.0 0.00 0.00 0.00 90 1014.8
20260502050932 53 48 0.0 0.0 0.00 0.00 0.00 90 1014.9
20260502050428 53 48 0.0 0.0 0.00 0.00 0.00 90 1015.0
20260502045926 53 53 0.0 0.0 0.00 0.00 0.00 90 1015.0
20260502045422 53 53 0.0 0.0 0.00 0.00 0.00 90 1015.0
20260502044919 53 74 0.0 0.0 0.00 0.00 0.00 90 1015.0
20260502044415 53 75 0.0 0.0 0.00 0.00 0.00 90 1015.0
20260502043912 53 61 0.0 0.0 0.00 0.00 0.00 90 1015.3
20260502043410 53 31 0.0 0.0 0.00 0.00 0.00 90 1015.1
20260502042909 53 31 0.0 0.0 0.00 0.00 0.00 90 1015.2
20260502042407 53 32 0.0 0.0 0.00 0.00 0.00 89 1015.4
20260502041904 53 27 0.0 0.0 0.00 0.00 0.00 89 1015.1
20260502041401 53 27 0.0 0.0 0.00 0.00 0.00 89 1015.1
20260502040858 53 27 0.0 0.0 0.00 0.00 0.00 89 1015.2
20260502040355 53 26 0.0 0.0 0.00 0.00 0.00 89 1015.4
20260502035851 53 28 0.0 0.0 0.00 0.03 0.03 88 1015.3
20260502035348 53 28 0.0 0.0 0.00 0.03 0.03 88 1015.3
20260502034845 53 28 0.0 0.0 0.00 0.03 0.03 88 1015.2
20260502034343 53 28 0.0 0.0 0.00 0.03 0.03 87 1015.3
20260502033842 53 28 0.0 0.0 0.00 0.03 0.03 87 1015.3
20260502033339 53 28 0.0 0.0 0.00 0.03 0.03 86 1015.3
20260502032836 53 28 0.0 0.0 0.00 0.03 0.03 86 1015.1
20260502032332 53 28 0.0 0.0 0.00 0.03 0.03 86 1015.4
20260502031830 53 28 0.0 0.0 0.00 0.03 0.03 86 1015.5
20260502031328 53 16 0.0 0.0 0.00 0.03 0.03 86 1015.2
20260502030826 53 25 0.0 0.0 0.00 0.03 0.03 86 1015.3
20260502030324 53 56 0.0 0.0 0.00 0.03 0.03 87 1015.6
20260502025820 53 33 0.0 0.0 0.00 0.03 0.03 86 1015.3
20260502025319 54 36 0.0 0.0 0.00 0.03 0.03 87 1015.6
20260502024816 54 72 0.0 0.0 0.00 0.03 0.03 86 1015.5
20260502024314 54 62 0.0 0.0 0.00 0.03 0.03 86 1015.7
20260502023811 53 40 0.0 0.0 0.00 0.03 0.03 85 1015.8
20260502023309 54 40 0.0 0.0 0.00 0.03 0.03 84 1015.6
20260502022806 54 40 0.0 0.0 0.00 0.03 0.03 83 1015.6
20260502022306 54 41 0.0 0.0 0.00 0.03 0.03 83 1015.9
20260502021759 54 52 0.0 0.0 0.00 0.03 0.03 82 1015.7
20260502021257 54 99 0.0 1.0 0.00 0.03 0.03 82 1015.7
20260502020754 54 48 0.0 0.0 0.00 0.03 0.03 82 1015.8
20260502020251 54 54 0.0 0.0 0.00 0.03 0.03 83 1015.8
20260502015749 54 43 0.0 0.0 0.00 0.03 0.03 83 1015.7
20260502015245 54 28 0.0 0.0 0.00 0.03 0.03 82 1015.7
20260502014742 54 51 0.0 0.0 0.00 0.03 0.03 83 1015.7
20260502014239 54 45 0.0 0.0 0.00 0.03 0.03 83 1015.6
20260502013735 54 45 0.0 0.0 0.00 0.03 0.03 83 1015.5
20260502013231 54 45 0.0 0.0 0.00 0.03 0.03 82 1015.5
20260502012728 54 45 0.0 0.0 0.00 0.03 0.03 82 1015.6
20260502012226 54 24 0.0 0.0 0.00 0.03 0.03 83 1015.6
20260502011723 54 31 0.0 0.0 0.00 0.03 0.03 83 1015.8
20260502011219 54 31 0.0 0.0 0.00 0.03 0.03 83 1015.6
20260502010717 54 23 0.0 0.0 0.00 0.03 0.03 82 1015.2
20260502010212 54 38 0.0 0.0 0.00 0.03 0.03 82 1015.3
20260502005710 55 56 0.0 0.0 0.00 0.03 0.03 80 1015.3
20260502005208 55 57 0.0 0.0 0.00 0.03 0.03 79 1015.2
20260502004704 55 63 0.0 0.0 0.00 0.03 0.03 78 1015.3
20260502004200 55 61 0.0 0.0 0.00 0.03 0.03 78 1015.4
20260502003658 55 31 0.0 0.0 0.00 0.03 0.03 78 1015.1
20260502003155 55 38 0.0 0.0 0.00 0.03 0.03 79 1014.8
20260502002651 55 41 0.0 0.0 0.00 0.03 0.03 79 1015.0
20260502002149 55 49 0.0 0.0 0.00 0.03 0.03 78 1014.7
20260502001646 55 70 0.0 0.0 0.00 0.03 0.03 78 1015.0
20260502001143 55 100 0.0 2.0 0.00 0.03 0.03 78 1015.0
20260502000641 55 113 0.0 1.0 0.00 0.03 0.03 78 1014.8
20260502000139 55 232 0.0 1.0 0.00 0.03 0.03 78 1014.7
20260501235634 55 87 0.0 1.0 0.00 0.03 0.03 77 1014.8
20260501235131 55 117 0.0 2.0 0.00 0.03 0.03 77 1015.0
20260501234626 55 128 0.0 1.0 0.00 0.03 0.03 76 1015.0
20260501234124 55 253 1.0 1.0 0.00 0.03 0.03 76 1014.9
20260501233622 55 97 0.0 1.0 0.00 0.03 0.03 76 1015.0
20260501233119 55 244 0.0 1.0 0.00 0.03 0.03 76 1015.0
20260501232614 56 31 0.0 1.0 0.00 0.03 0.03 76 1014.9
20260501232112 56 145 1.0 1.0 0.00 0.03 0.03 76 1015.0
20260501231609 56 92 0.0 0.0 0.00 0.03 0.03 75 1014.9
20260501231108 56 113 0.0 1.0 0.00 0.03 0.03 73 1014.9
20260501230606 56 47 0.0 0.0 0.00 0.03 0.03 73 1014.8
20260501230104 56 249 0.0 1.0 0.00 0.03 0.03 73 1014.9
20260501225601 56 29 0.0 2.0 0.00 0.03 0.03 72 1014.9
20260501225057 56 97 0.0 1.0 0.00 0.03 0.03 72 1014.9
20260501224555 56 75 0.0 1.0 0.00 0.03 0.03 71 1015.0
20260501224052 56 92 0.0 1.0 0.00 0.03 0.03 71 1015.2
20260501223548 56 53 0.0 0.0 0.00 0.03 0.03 72 1015.3
20260501223044 56 217 0.0 1.0 0.00 0.03 0.03 71 1015.5
20260501222541 56 103 1.0 1.0 0.00 0.03 0.03 70 1015.6
20260501222038 56 77 0.0 1.0 0.00 0.03 0.03 70 1015.5